Date String (YYYY-MM-DD hh:mm:ss) UTC,Instrument flags,Ambient pressure (hPa),Sample flow (lpm),Bypass flow (lpm),Sample temperature (°C),Ambient temperature (°C),ASC tube jacket temperature (°C),LED temperature (°C),Box temperature (°C),Sample RH (%),Mass concentration (μg/m³),Mass concentration (μg/m³)
DateTimeUTC,F1_M11,P_M11,Q1_M11,Q2_M11,T1_M11,T2_M11,T3_M11,T4_M11,T5_M11,U1_M11,X2_M11,X0_M11
2021-08-13 07:00:00,,0833.9,5.00,0.00,29.6,28.8,00.0,38.5,31.5,29.1,0009.70,0028.90
2021-08-13 07:01:00,,0833.9,5.01,0.00,29.6,28.9,00.0,38.5,31.6,29.0,0009.67,0028.91
2021-08-13 07:02:00,,0833.9,4.99,0.00,29.6,29.0,00.0,38.5,31.6,28.9,0009.62,0028.74
2021-08-13 07:03:00,,0833.9,5.01,0.00,29.6,27.8,00.0,38.5,31.3,28.9,0009.61,0027.79
2021-08-13 07:04:00,,0833.9,5.00,0.00,29.4,25.9,00.0,38.5,30.9,29.1,0009.52,0027.78
2021-08-13 07:05:00,,0833.9,4.99,0.00,29.2,25.3,00.0,38.5,30.6,29.5,0009.55,0028.53
2021-08-13 07:06:00,,0833.9,5.02,0.00,29.0,25.6,00.0,38.4,30.7,29.9,0009.50,0029.10
2021-08-13 07:07:00,,0833.9,4.98,0.00,28.9,26.1,00.0,38.3,30.7,30.1,0009.40,0028.85
2021-08-13 07:08:00,,0833.9,5.01,0.00,28.9,26.5,00.0,38.3,30.8,30.2,0009.42,0027.51
2021-08-13 07:09:00,,0833.9,5.00,0.00,28.9,26.9,00.0,38.3,30.9,30.2,0009.45,0028.36
2021-08-13 07:10:00,,0834.0,5.00,0.00,29.0,27.3,00.0,38.3,30.9,30.1,0009.44,0028.58
2021-08-13 07:11:00,,0834.0,5.00,0.00,29.0,27.6,00.0,38.3,31.0,30.1,0009.42,0028.85
2021-08-13 07:12:00,,0834.0,5.01,0.00,29.1,27.8,00.0,38.3,31.1,30.0,0009.46,0029.49
2021-08-13 07:13:00,,0834.0,5.00,0.00,29.1,28.0,00.0,38.3,31.2,29.9,0009.48,0029.69
2021-08-13 07:14:00,,0834.0,4.99,0.00,29.2,28.2,00.0,38.3,31.2,29.8,0009.44,0030.13
2021-08-13 07:15:00,,0834.0,5.00,0.00,29.2,28.3,00.0,38.3,31.2,29.8,0009.48,0029.20
2021-08-13 07:16:00,,0834.0,5.01,0.00,29.3,28.4,00.0,38.3,31.3,29.7,0009.49,0028.31
2021-08-13 07:17:00,,0834.0,5.00,0.00,29.3,28.5,00.0,38.3,31.4,29.6,0009.54,0028.45
2021-08-13 07:18:00,,0834.0,5.01,0.00,29.4,28.6,00.0,38.4,31.4,29.5,0009.62,0028.27
2021-08-13 07:19:00,,0834.0,4.99,0.00,29.4,28.7,00.0,38.4,31.4,29.5,0009.55,0029.05
2021-08-13 07:20:00,,0834.0,5.02,0.00,29.5,28.8,00.0,38.4,31.5,29.4,0009.57,0028.63
2021-08-13 07:21:00,,0834.0,5.00,0.00,29.5,28.9,00.0,38.5,31.5,29.3,0009.49,0028.27
2021-08-13 07:22:00,,0833.9,4.99,0.00,29.6,28.9,00.0,38.5,31.6,29.3,0009.50,0028.84
2021-08-13 07:23:00,,0834.0,4.99,0.00,29.6,29.0,00.0,38.5,31.6,29.2,0009.45,0028.66
2021-08-13 07:24:00,,0833.9,5.01,0.00,29.7,29.0,00.0,38.6,31.7,29.1,0009.38,0028.44
2021-08-13 07:25:00,,0833.9,4.99,0.00,29.7,28.6,00.0,38.6,31.5,29.0,0009.36,0028.68
2021-08-13 07:26:00,,0833.9,5.00,0.00,29.6,26.7,00.0,38.6,31.0,29.2,0009.26,0029.28
2021-08-13 07:27:00,,0833.9,5.00,0.00,29.4,26.2,00.0,38.5,30.8,29.6,0009.21,0029.53
2021-08-13 07:28:00,,0833.9,4.99,0.00,29.3,26.4,00.0,38.5,30.9,29.8,0009.17,0028.92
2021-08-13 07:29:00,,0833.9,5.00,0.00,29.2,26.9,00.0,38.5,31.0,29.9,0009.09,0028.32
2021-08-13 07:30:00,,0833.9,5.00,0.00,29.2,27.2,00.0,38.5,31.1,30.0,0009.12,0028.51
2021-08-13 07:31:00,,0833.9,5.01,0.00,29.2,27.6,00.0,38.5,31.2,29.9,0009.10,0029.96
2021-08-13 07:32:00,,0833.9,4.99,0.00,29.3,27.8,00.0,38.5,31.2,29.9,0009.09,0031.02
2021-08-13 07:33:00,,0833.9,5.01,0.00,29.3,28.1,00.0,38.5,31.3,29.9,0009.03,0030.05
2021-08-13 07:34:00,,0833.9,4.99,0.00,29.4,28.2,00.0,38.5,31.3,29.9,0008.94,0028.89
2021-08-13 07:35:00,,0834.0,5.00,0.00,29.4,28.4,00.0,38.5,31.4,29.8,0008.92,0028.14
2021-08-13 07:36:00,,0834.0,5.00,0.00,29.4,28.5,00.0,38.5,31.4,29.7,0008.94,0028.07
2021-08-13 07:37:00,,0834.0,5.00,0.00,29.5,28.6,00.0,38.5,31.5,29.7,0008.97,0029.29
2021-08-13 07:38:00,,0834.0,5.01,0.00,29.5,28.7,00.0,38.5,31.5,29.7,0008.99,0030.35
2021-08-13 07:39:00,,0834.0,5.00,0.00,29.6,28.8,00.0,38.6,31.5,29.6,0008.97,0029.54
2021-08-13 07:40:00,,0834.0,5.00,0.00,29.6,28.9,00.0,38.6,31.6,29.6,0008.95,0029.36
2021-08-13 07:41:00,,0834.0,4.99,0.00,29.7,29.0,00.0,38.6,31.6,29.5,0008.90,0029.02
2021-08-13 07:42:00,,0834.0,5.01,0.00,29.7,29.0,00.0,38.6,31.7,29.5,0008.84,0028.70
2021-08-13 07:43:00,,0834.0,4.98,0.00,29.7,27.9,00.0,38.6,31.4,29.4,0008.93,0028.61
2021-08-13 07:44:00,,0834.0,5.00,0.00,29.5,26.4,00.0,38.6,30.9,29.7,0008.90,0029.12
2021-08-13 07:45:00,,0834.0,4.99,0.00,29.3,26.3,00.0,38.6,30.9,30.0,0008.95,0028.67
2021-08-13 07:46:00,,0834.0,5.01,0.00,29.2,26.6,00.0,38.6,31.0,30.3,0008.95,0029.88
2021-08-13 07:47:00,,0834.0,4.98,0.00,29.2,27.0,00.0,38.5,31.0,30.3,0008.94,0029.73
2021-08-13 07:48:00,,0834.1,5.00,0.00,29.2,27.4,00.0,38.5,31.1,30.4,0008.91,0028.52
2021-08-13 07:49:00,,0834.0,5.01,0.00,29.2,27.7,00.0,38.5,31.2,30.4,0008.86,0026.80
2021-08-13 07:50:00,,0834.0,4.99,0.00,29.3,27.9,00.0,38.5,31.3,30.3,0008.81,0026.90
2021-08-13 07:51:00,,0834.0,5.00,0.00,29.3,28.1,00.0,38.5,31.3,30.2,0008.84,0026.35
2021-08-13 07:52:00,,0834.0,5.00,0.00,29.4,28.3,00.0,38.5,31.4,30.2,0008.84,0026.94
2021-08-13 07:53:00,,0834.0,5.00,0.00,29.4,28.5,00.0,38.5,31.4,30.1,0008.80,0026.58
2021-08-13 07:54:00,,0834.0,4.99,0.00,29.5,28.6,00.0,38.5,31.4,30.0,0008.68,0026.84
2021-08-13 07:55:00,,0834.0,5.00,0.00,29.5,28.7,00.0,38.5,31.5,30.0,0008.71,0027.40
2021-08-13 07:56:00,,0834.0,5.01,0.00,29.6,28.8,00.0,38.6,31.5,29.9,0008.76,0028.35
2021-08-13 07:57:00,,0834.0,4.99,0.00,29.6,28.8,00.0,38.6,31.6,29.8,0008.85,0027.47
2021-08-13 07:58:00,,0834.0,5.01,0.00,29.6,28.9,00.0,38.6,31.6,29.7,0008.78,0027.54
2021-08-13 07:59:00,,0834.0,4.99,0.00,29.7,29.0,00.0,38.6,31.7,29.6,0008.78,0027.37
